SCP
0 0 0 0 0 0 0 0 0 0 0 0 0 0 0 0 0 0 0 0 0 0 0 0 0 0 0 0 0 0 0 0 0 0 0 0 0 0 0 0 0 0 0 0
0 0 0 0 0 0 0 0 0 0 0 0 0 0 0 0 0 0 0 0 0 0 0 0 0 0 0 0 0 0 0 0 0 0 0 0 0 0 0 0 0 0 0 0
0 0 0 0 0 0 0 0 0 0 0 0 0 0 0 0 0 0 0 0 0 0 0 0 0 0 0 0 0 0 0 0 0 0 0 0 0 0 0 0 0 0 0 0
0 0 0 0 0 0 0 0 0 0 0 0 0 0 0 0 0 0 0 0 0 0 0 0 0 0 0 0 0 0 0 0 0 0 0 0 0 0 0 0 0 0 0 0
0 0 0 0 0 0 0 0 0 0 0 0 0 0 0 0 0 0 0 0 0 0 0 0 0 0 0 0 0 0 0 0 0 0 0 0 0 0 0 0 0 0 0 0
0 0 0 0 0 0 0 0 0 0 0 0 0 0 0 0 0 0 0 0 0 0 0 0 0 0 0 0 0 0 0 0 0 0 0 0 0 0 0 0 0 0 0 0
0 0 0 0 0 0 0 0 0 0 0 0 0 0 0 0 0 0 0 0 0 0 0 0 0 0 0 0 0 0 0 0 0 0 0 0 0 0 0 0 0 0 0 0
0 0 0 0 0 0 0 0 0 0 0 0 0 0 0 0 0 0 0 0 0 0 0 0 0 0 0 0 0 0 0 0 0 0 0 0 0 0 0 0 0 0 0 0
0 0 0 0 0 0 0 0 0 0 0 0 0 0 0 0 0 0 0 0 0 0 0 0 0 0 0 0 0 0 0 0 0 0 0 0 0 0 0 0 0 0 0 0
0 0 0 0 0 0 0 0 0 0 0 0 0 0 0 0 0 0 0 0 0 0 0 0 0 0 0 0 0 0 0 0 0 0 0 0 0 0 0 0 0 0 0 0
0 0 0 0 0 0 0 0 0 0 0 0 0 0 0 0 0 0 0 0 0 0 0 0 0 0 0 0 0 0 0 0 0 0 0 0 0 0 0 0 0 0 0 0
0 0 0 0 0 0 0 0 0 0 0 0 0 0 0 0 0 0 0 0 0 0 0 0 0 0 0 0 0 0 0 0 0 0 0 0 0 0 0 0 0 0 0 0
0 0 0 0 0 0 0 0 0 0 0 0 0 0 0 0 0 0 0 0 0 0 0 0 0 0 0 0 0 0 0 0 0 0 0 0 0 0 0 0 0 0 0 0
0 0 0 0 0 0 0 0 0 0 0 0 0 0 0 0 0 0 0 0 0 0 0 0 0 0 0 0 0 0 0 0 0 0 0 0 0 0 0 0 0 0 0 0
0 0 0 0 0 0 0 0 0 0 0 0 0 0 0 0 0 0 0 0 0 0 0 0 0 0 0 0 0 0 0 0 0 0 0 0 0 0 0 0 0 0 0 0
0 0 0 0 0 0 0 0 0 0 0 0 0 0 0 0 0 0 0 0 0 0 0 0 0 0 0 0 0 0 0 0 0 0 0 0 0 0 0 0 0 0 0 0
0 0 0 0 0 0 0 0 0 0 0 0 0 0 0 0 0 0 0 0 0 0 0 0 0 0 0 0 0 0 0 0 0 0 0 0 0 0 0 0 0 0 0 0
0 0 0 0 0 0 0 0 0 0 0 0 0 0 0 0 0 0 0 0 0 0 0 0 0 0 0 0 0 0 0 0 0 0 0 0 0 0 0 0 0 0 0 0
0 0 0 0 0 0 0 0 0 0 0 0 0 0 0 0 0 0 0 0 0 0 0 0 0 0 0 0 0 0 0 0 0 0 0 0 0 0 0 0 0 0 0 0
0 0 0 0 0 0 0 0 0 0 0 0 0 0 0 0 0 0 0 0 0 0 0 0 0 0 0 0 0 0 0 0 0 0 0 0 0 0 0 0 0 0 0 0
0 0 0 0 0 0 0 0 0 0 0 0 0 0 0 0 0 0 0 0 0 0 0 0 0 0 0 0 0 0 0 0 0 0 0 0 0 0 0 0 0 0 0 0
0 0 0 0 0 0 0 0 0 0 0 0 0 0 0 0 0 0 0 0 0 0 0 0 0 0 0 0 0 0 0 0 0 0 0 0 0 0 0 0 0 0 0 0
0 0 0 0 0 0 0 0 0 0 0 0 0 0 0 0 0 0 0 0 0 0 0 0 0 0 0 0 0 0 0 0 0 0 0 0 0 0 0 0 0 0 0 0
0 0 0 0 0 0 0 0 0 0 0 0 0 0 0 0 0 0 0 0 0 0 0 0 0 0 0 0 0 0 0 0 0 0 0 0 0 0 0 0 0 0 0 0
0 0 0 0 0 0 0 0 0 0 0 0 0 0 0 0 0 0 0 0 0 0 0 0 0 0 0 0 0 0 0 0 0 0 0 0 0 0 0 0 0 0 0 0
0 0 0 0 0 0 0 0 0 0 0 0 0 0 0 0 0 0 0 0 0 0 0 0 0 0 0 0 0 0 0 0 0 0 0 0 0 0 0 0 0 0 0 0
0 0 0 0 0 0 0 0 0 0 0 0 0 0 0 0 0 0 0 0 0 0 0 0 0 0 0 0 0 0 0 0 0 0 0 0 0 0 0 0 0 0 0 0
Wind_Speed
3 4 3 3 4 2 2 3 3 3 3 4 3 2 1 1 2 4 4 6 6 7 7 7 7 7 7 7 7 7 7 7 6 5 5 5 5 5 5 5 5 3 3 3
3 2 3 3 4 2 1 2 2 1 3 3 1 1 0 1 1 2 2 3 5 6 6 7 7 6 6 7 7 7 7 7 6 6 6 6 6 6 6 6 5 5 4 3
4 6 4 5 4 3 2 2 4 4 4 2 2 3 4 3 1 1 1 2 3 3 4 5 5 5 5 5 6 6 7 7 7 7 7 7 6 6 6 6 5 5 5 4
2 5 3 6 1 3 3 4 4 4 3 5 4 3 2 3 3 3 1 0 1 2 3 3 4 5 5 5 6 7 7 7 7 7 6 6 6 6 6 5 5 5 5 6
1 2 8 7 2 3 2 5 5 5 4 3 2 1 3 3 4 4 3 2 1 0 1 2 3 4 5 6 6 7 7 7 6 6 6 6 7 6 5 5 5 5 5 6
1 1 5 5 1 2 2 5 4 5 5 4 4 1 4 3 4 3 2 1 1 1 2 3 3 3 5 5 5 5 5 5 5 5 5 5 5 5 4 4 4 5 5 5
3 4 9 6 2 2 2 6 2 4 5 7 7 5 2 3 3 3 2 2 2 2 2 1 2 3 4 4 4 4 4 4 5 5 4 4 4 4 4 4 4 5 5 5
4 4 9 3 4 6 7 3 2 3 4 6 5 2 2 3 4 4 3 2 2 2 1 1 2 2 2 2 3 3 3 3 4 4 4 4 4 4 4 4 5 5 5 6
9 10 5 4 6 5 3 3 3 3 4 5 4 4 4 4 4 3 3 3 2 2 1 0 1 1 0 2 2 2 3 3 4 4 4 4 4 5 4 4 4 5 5 6
6 10 7 7 7 6 5 5 4 4 4 5 5 5 5 4 4 4 4 3 3 3 2 1 1 0 1 1 2 2 3 4 4 4 5 5 4 4 3 4 4 5 5 6
7 9 7 7 7 7 5 4 4 3 4 5 6 5 6 5 5 5 4 4 4 4 3 3 2 1 1 1 1 1 2 2 3 3 4 4 4 3 4 3 5 6 5 5
9 7 5 6 4 3 5 5 6 5 4 4 6 6 5 5 5 5 5 4 4 4 3 3 2 2 1 1 0 0 1 2 2 3 3 3 4 5 7 7 10 10 10 9
7 3 5 6 5 4 5 6 5 6 6 5 5 5 5 5 5 5 5 5 6 5 4 3 3 3 2 1 1 1 1 2 2 3 3 4 4 5 6 7 9 10 11 13
7 4 6 6 6 5 5 5 4 4 4 4 4 4 4 4 4 5 6 6 5 5 4 4 3 3 2 2 1 1 1 2 2 2 3 3 3 4 4 6 7 6 8 13
8 8 8 6 5 4 3 2 2 4 4 4 4 4 5 6 6 6 5 4 4 4 4 4 4 3 2 2 2 1 1 1 2 2 2 3 3 4 4 5 6 6 6 8
5 5 6 7 8 6 4 4 5 6 5 5 5 6 6 6 5 4 4 5 5 6 5 5 4 3 2 2 2 1 1 3 3 2 2 3 3 4 4 5 5 6 6 7
5 6 6 6 7 7 6 7 7 7 6 6 7 6 5 4 4 4 5 5 5 5 4 5 4 3 3 3 2 1 1 2 3 2 2 3 3 4 4 4 5 6 6 8
9 9 8 7 7 7 7 7 6 6 6 6 5 5 6 7 7 7 5 4 3 2 3 3 3 2 2 2 2 1 1 1 1 2 2 3 3 3 4 4 5 6 6 7
7 8 8 8 8 7 7 7 7 6 5 5 6 7 7 7 6 5 5 5 5 5 4 3 4 3 2 2 2 1 1 1 2 2 3 5 4 3 4 4 5 5 6 6
5 6 6 6 6 6 6 6 5 5 5 5 5 5 5 5 5 5 6 5 5 4 4 4 4 3 3 3 2 2 2 2 2 2 2 3 3 4 4 4 5 5 6 6
5 5 5 5 5 5 5 5 5 5 5 6 7 7 7 5 5 5 5 4 4 4 4 5 3 3 2 2 3 2 2 2 2 2 2 3 3 4 4 4 5 5 6 6
4 4 5 4 4 4 4 4 4 5 5 5 5 5 5 5 5 4 4 4 4 6 4 3 3 4 3 3 2 2 2 2 2 2 2 2 3 4 4 4 5 5 5 5
4 4 5 4 4 4 3 3 4 5 5 6 7 7 7 6 5 5 4 3 4 6 4 3 4 5 4 3 2 2 2 2 2 2 2 3 3 3 4 4 4 5 5 5
4 4 4 3 2 2 4 4 4 3 4 4 5 5 5 4 3 3 2 5 7 6 4 4 6 5 4 2 2 2 2 2 2 2 3 2 2 3 3 4 4 4 5 6
4 4 3 3 4 5 5 3 2 3 3 3 3 4 3 3 4 4 3 4 6 6 3 4 5 5 3 2 2 2 2 2 2 2 2 2 3 3 3 4 4 4 5 5
4 4 5 5 4 4 3 3 3 3 3 3 2 2 2 2 3 3 3 4 5 5 3 3 3 3 2 2 2 2 2 2 2 2 2 3 3 4 4 4 5 4 4 5
4 4 3 3 4 4 4 4 5 5 5 5 4 3 4 3 3 4 4 3 3 3 3 3 3 2 2 2 2 2 2 2 2 2 2 3 3 3 4 4 4 4 4 5
Wind_Direction
254 271 269 268 290 293 199 197 196 232 227 256 248 245 270 346 10 22 21 20 18 17 15 17 20 23 30 30 29 34 40 39 36 32 31 30 31 29 31 30 23 21 22 11
315 325 309 279 276 267 230 192 207 229 263 255 204 135 282 299 8 15 4 7 13 18 16 15 14 15 24 28 28 38 42 36 30 31 31 28 24 22 24 22 18 19 17 8
306 316 342 297 260 207 219 218 184 209 235 190 188 211 221 224 226 242 299 0 9 7 7 5 7 14 24 25 28 38 39 33 28 28 29 23 21 23 20 14 14 11 5 1
322 1 292 255 262 197 216 247 222 228 224 199 206 211 222 209 203 220 239 304 343 353 6 7 9 17 26 31 33 34 31 26 20 22 23 19 22 20 13 10 10 5 359 356
43 320 287 293 255 183 191 276 221 208 217 188 143 61 289 223 198 205 203 196 205 313 16 23 22 20 36 36 33 31 24 16 11 13 15 15 14 6 1 3 2 356 349 349
134 265 260 263 244 177 99 290 242 186 189 171 138 193 260 200 176 185 172 152 136 90 60 45 20 28 44 34 29 20 7 2 3 8 11 9 1 352 348 351 346 342 342 340
195 243 266 257 241 122 167 255 265 190 185 173 189 210 219 156 167 171 164 153 130 104 79 42 25 42 46 31 12 349 353 2 6 5 2 355 352 347 343 344 345 345 338 336
178 216 257 228 152 185 221 259 233 202 194 190 205 202 180 176 177 172 165 154 141 125 89 38 44 61 46 1 331 342 358 6 3 358 356 356 354 347 347 348 348 344 340 336
200 220 242 214 214 234 213 237 238 213 210 191 197 206 197 194 190 187 182 177 162 152 139 36 31 89 87 304 326 349 2 359 353 353 353 351 349 344 345 350 348 340 338 334
258 260 253 249 248 251 229 231 243 225 205 189 203 208 202 198 194 190 189 185 170 161 176 218 249 260 255 303 341 2 357 347 346 348 345 345 342 337 338 338 334 330 330 325
258 272 290 271 236 235 231 226 229 226 207 202 200 209 202 201 200 197 192 184 175 184 201 220 225 241 276 305 11 1 341 334 334 334 332 330 327 323 326 314 321 321 316 314
231 231 217 257 264 227 221 227 220 213 221 218 205 211 205 205 201 193 191 182 185 197 205 211 209 226 242 243 201 329 328 327 326 326 325 327 329 327 326 324 327 325 322 319
239 251 233 260 274 244 231 235 225 215 214 219 215 205 200 203 197 189 189 189 197 202 203 200 204 224 232 222 214 242 292 309 315 322 327 329 330 329 326 327 328 329 330 330
240 249 265 252 252 254 245 245 230 227 223 212 204 194 189 193 190 194 202 203 196 190 193 196 204 224 224 208 215 242 269 299 312 307 312 316 317 316 315 319 324 324 327 330
241 224 237 261 273 272 256 230 219 231 223 216 196 190 188 193 203 208 205 188 175 182 195 196 207 225 207 194 209 233 262 283 295 298 303 305 308 310 311 313 313 314 320 326
250 251 247 250 253 254 243 226 226 233 223 217 210 208 203 201 201 197 188 176 178 198 202 201 213 215 191 186 200 224 255 293 309 304 302 306 309 311 313 314 314 317 320 323
232 249 239 244 245 246 237 229 227 231 224 219 218 209 192 181 185 196 199 194 195 202 199 200 208 195 180 181 192 221 246 281 305 308 296 300 303 305 307 309 311 314 314 318
224 235 236 236 240 243 244 236 230 228 225 222 207 188 187 190 200 205 199 180 175 198 213 206 194 176 175 186 192 210 231 256 281 287 290 295 300 300 303 306 309 311 313 318
232 237 241 240 237 234 237 235 230 226 222 203 193 198 203 204 203 193 174 169 184 210 218 195 182 169 183 204 193 198 214 250 276 284 288 301 309 305 305 305 306 309 314 319
238 237 240 244 239 228 231 232 224 220 212 198 195 197 203 204 191 179 175 192 206 204 184 175 172 180 194 207 196 190 215 244 264 278 286 290 295 301 305 307 310 311 314 316
244 244 246 248 250 242 231 220 209 213 208 193 196 203 206 200 183 173 176 208 217 187 175 174 171 184 195 201 195 192 217 242 256 265 278 287 295 300 303 307 309 311 313 316
242 242 245 244 246 255 247 223 212 208 201 198 200 196 189 189 185 186 201 205 187 175 170 174 181 198 205 190 180 198 221 239 251 257 266 277 286 293 298 303 304 306 308 310
242 243 245 242 238 246 255 233 215 206 203 200 195 193 194 194 186 187 210 198 176 182 174 183 199 206 197 169 181 204 222 236 247 256 262 266 271 278 287 293 296 300 301 303
240 239 238 237 218 226 242 241 222 212 209 207 201 193 184 181 198 207 186 172 179 180 179 193 200 202 184 167 189 208 223 238 248 255 261 265 267 273 281 287 292 295 295 297
233 235 229 218 224 232 232 225 213 208 196 199 199 192 188 185 187 182 166 173 182 178 176 193 200 197 177 180 201 216 226 237 246 252 251 264 270 273 275 279 283 290 293 293
222 226 228 226 226 224 212 201 208 207 192 194 201 190 176 162 156 156 160 170 178 178 173 176 184 189 187 198 210 219 224 250 272 271 262 268 272 275 276 279 283 285 288 289
224 227 231 241 234 214 206 204 208 211 203 195 197 188 175 165 159 162 164 166 170 173 176 180 180 185 193 204 213 216 223 237 250 258 261 262 267 271 275 279 281 283 285 286